EW6703 Weather Reports


time (UTC)temp
C
wind
direction
speed
KPH
gust
KPH
rain 1hr
cm
rain 24hr
cm
rain mn
cm
humidity
%
barometer
mb
20260510115749 11 44 1.6 3.2 0.00 0.38 0.00 96 1000.6
20260510115249 11 44 1.6 6.4 0.00 0.38 0.00 96 1000.5
20260510114749 11 44 1.6 6.4 0.00 0.38 0.00 96 1000.5
20260510114250 11 30 1.6 3.2 0.00 0.38 0.00 96 1000.3
20260510113746 11 24 1.6 3.2 0.00 0.38 0.00 96 1000.3
20260510113245 11 24 0.0 3.2 0.00 0.38 0.00 96 1000.4
20260510112746 11 23 0.0 3.2 0.00 0.38 0.00 96 1000.3
20260510112737 11 24 0.0 3.2 0.00 0.38 0.00 96 1000.3
20260510111745 10 23 0.0 3.2 0.00 0.38 0.00 96 1000.4
20260510111245 10 23 1.6 3.2 0.00 0.38 0.00 96 1000.3
20260510110745 10 23 1.6 3.2 0.00 0.38 0.00 96 1000.1
20260510110246 10 23 0.0 3.2 0.00 0.38 0.00 96 1000.1
20260510105745 10 23 0.0 1.6 0.00 0.38 0.00 96 1000.2
20260510105240 10 23 0.0 0.0 0.00 0.38 0.00 95 1000.2
20260510104733 10 23 0.0 0.0 0.00 0.38 0.00 96 1000.2
20260510104228 10 23 0.0 0.0 0.00 0.38 0.00 95 1000.1
20260510103721 10 23 0.0 0.0 0.00 0.38 0.00 95 1000.0
20260510103214 10 23 0.0 0.0 0.00 0.38 0.00 95 1000.0
20260510102709 10 23 0.0 0.0 0.00 0.38 0.00 95 999.7
20260510102204 10 23 0.0 0.0 0.00 0.38 0.00 95 999.7
20260510101657 10 23 0.0 1.6 0.00 0.38 0.00 95 999.7
20260510101417 10 23 0.0 1.6 0.00 0.38 0.00 95 999.6
20260510100907 10 23 0.0 0.0 0.00 0.38 0.00 95 999.7
20260510100140 10 23 0.0 0.0 0.00 0.38 0.00 95 999.8
20260510095632 10 23 0.0 0.0 0.00 0.38 0.00 95 999.8
20260510095344 10 23 0.0 3.2 0.00 0.38 0.00 95 999.7
20260510094621 10 23 0.0 3.2 0.00 0.38 0.00 95 999.6
20260510094115 10 23 0.0 0.0 0.00 0.38 0.00 95 999.7
20260510093609 10 23 0.0 3.2 0.00 0.38 0.00 95 999.7
20260510093102 10 23 0.0 3.2 0.00 0.38 0.00 95 999.8
20260510093047 10 24 0.0 3.2 0.00 0.38 0.00 95 999.4
20260510092100 10 23 0.0 3.2 0.00 0.38 0.00 95 999.4
20260510091600 10 22 0.0 3.2 0.00 0.38 0.00 95 999.3
20260510091100 10 23 0.0 1.6 0.00 0.38 0.00 95 999.4
20260510090559 10 23 1.6 4.8 0.00 0.38 0.00 95 999.4
20260510090057 10 23 1.6 4.8 0.00 0.38 0.00 95 999.5
20260510085821 10 22 1.6 3.2 0.00 0.38 0.00 95 999.7
20260510085320 10 22 1.6 4.8 0.00 0.38 0.00 95 999.5
20260510084822 10 22 1.6 6.4 0.00 0.38 0.00 95 999.7
20260510084058 10 23 1.6 6.4 0.00 0.38 0.00 95 999.6
20260510083814 10 300 1.6 4.8 0.00 0.38 0.00 95 999.6
20260510083055 10 300 1.6 9.7 0.00 0.38 0.00 95 999.7
20260510082824 10 19 3.2 9.7 0.00 0.38 0.00 95 999.7
20260510082055 10 269 3.2 9.7 0.00 0.38 0.00 95 999.8
20260510081554 9 346 1.6 6.4 0.00 0.38 0.00 95 999.2
20260510081314 9 347 0.0 4.8 0.00 0.38 0.00 95 999.5
20260510080555 9 351 0.0 3.2 0.00 0.38 0.00 94 999.6
20260510080053 9 351 0.0 0.0 0.00 0.38 0.00 94 999.0
20260510075547 9 351 0.0 0.0 0.00 0.38 0.00 94 999.0
20260510075313 9 351 0.0 0.0 0.00 0.38 0.00 94 999.0
20260510074536 9 351 0.0 1.6 0.00 0.38 0.00 94 998.9
20260510074030 9 351 0.0 1.6 0.00 0.38 0.00 94 998.9
20260510073522 9 351 0.0 4.8 0.00 0.38 0.00 94 998.9
20260510073017 9 351 1.6 4.8 0.00 0.38 0.00 94 999.0
20260510072511 9 351 1.6 4.8 0.00 0.38 0.00 94 998.8
20260510072006 9 351 1.6 4.8 0.00 0.38 0.00 94 998.9
20260510071724 9 351 1.6 6.4 0.00 0.38 0.00 94 998.9
20260510071211 9 350 1.6 8.0 0.00 0.38 0.00 94 999.0
20260510070447 9 350 3.2 8.0 0.00 0.38 0.00 94 998.9
20260510070205 9 344 1.6 6.4 0.00 0.38 0.00 94 999.0
20260510065435 8 340 0.0 4.8 0.00 0.38 0.00 94 998.9
20260510064929 8 114 0.0 0.0 0.00 0.38 0.00 94 998.8
20260510064423 8 114 0.0 0.0 0.00 0.38 0.00 94 998.7
20260510063917 8 114 0.0 0.0 0.00 0.38 0.00 94 998.5
20260510063410 9 114 0.0 0.0 0.00 0.38 0.00 94 998.4
20260510062906 9 114 0.0 0.0 0.00 0.38 0.00 93 998.4
20260510062358 9 114 0.0 0.0 0.00 0.38 0.00 93 998.4
20260510061853 9 114 0.0 0.0 0.00 0.38 0.00 93 998.3
20260510061347 9 114 0.0 0.0 0.00 0.38 0.00 93 998.4
20260510060840 9 114 0.0 0.0 0.00 0.38 0.00 93 998.4
20260510060602 9 114 0.0 0.0 0.00 0.38 0.00 93 998.5
20260510055830 9 114 0.0 0.0 0.00 0.38 0.00 93 998.5
20260510055323 8 114 0.0 1.6 0.00 0.38 0.00 93 998.6
20260510054817 8 114 0.0 1.6 0.00 0.38 0.00 93 998.7
20260510054315 8 114 0.0 1.6 0.00 0.38 0.00 93 998.7
20260510053814 8 114 0.0 0.0 0.00 0.38 0.00 93 998.8
20260510053801 8 114 0.0 0.0 0.00 0.38 0.00 93 998.8
20260510052815 8 114 0.0 1.6 0.00 0.38 0.00 93 998.8
20260510052312 8 114 0.0 1.6 0.00 0.38 0.00 93 998.8
20260510052027 8 114 0.0 0.0 0.00 0.38 0.00 93 998.9
20260510051532 8 114 0.0 0.0 0.00 0.38 0.00 93 998.8
20260510050811 8 114 0.0 0.0 0.00 0.38 0.00 92 998.8
20260510050309 8 114 0.0 0.0 0.00 0.38 0.00 93 998.8
20260510045807 8 114 0.0 0.0 0.00 0.38 0.00 93 998.9
20260510045306 8 114 0.0 0.0 0.00 0.38 0.00 93 999.0
20260510044803 8 114 0.0 0.0 0.00 0.38 0.00 93 999.0
20260510044523 8 114 0.0 0.0 0.00 0.38 0.00 92 999.0
20260510044023 8 114 0.0 0.0 0.00 0.38 0.00 92 999.0
20260510043259 8 114 0.0 0.0 0.00 0.38 0.00 92 999.1
20260510042758 8 114 0.0 0.0 0.00 0.38 0.00 92 999.0
20260510042256 8 114 0.0 0.0 0.00 0.38 0.00 92 999.1
20260510041755 9 114 0.0 0.0 0.00 0.38 0.00 92 999.1
20260510041252 9 114 0.0 0.0 0.00 0.38 0.00 92 999.1
20260510040750 9 114 0.0 0.0 0.00 0.38 0.00 92 999.1
20260510040252 9 114 0.0 0.0 0.00 0.38 0.00 92 999.2
20260510035745 9 114 0.0 0.0 0.00 0.38 0.38 92 999.2
20260510035239 9 114 0.0 0.0 0.00 0.38 0.38 92 999.2
20260510034733 9 114 0.0 0.0 0.00 0.38 0.38 92 999.1
20260510034228 9 114 0.0 0.0 0.00 0.38 0.38 92 999.1
20260510033721 9 114 0.0 0.0 0.00 0.38 0.38 92 999.1
20260510033215 9 114 0.0 0.0 0.00 0.38 0.38 92 999.0
20260510032709 9 114 0.0 0.0 0.00 0.38 0.38 92 998.9
20260510032427 9 114 0.0 0.0 0.00 0.38 0.38 92 999.0
20260510031920 10 114 0.0 0.0 0.00 0.38 0.38 92 998.8
20260510031151 10 114 0.0 0.0 0.00 0.38 0.38 91 998.8
20260510030646 10 114 0.0 0.0 0.00 0.38 0.38 91 998.7
20260510030139 10 114 0.0 0.0 0.00 0.38 0.38 91 998.6
20260510025632 10 114 0.0 0.0 0.00 0.38 0.38 91 998.6
20260510025128 10 114 0.0 0.0 0.00 0.38 0.38 91 998.7
20260510024621 10 114 0.0 0.0 0.00 0.38 0.38 91 998.7
20260510024115 10 114 0.0 0.0 0.00 0.38 0.38 91 998.7
20260510023609 10 114 0.0 0.0 0.00 0.38 0.38 91 998.8
20260510023103 10 114 0.0 0.0 0.00 0.38 0.38 91 998.7
20260510022557 10 114 0.0 0.0 0.00 0.38 0.38 90 998.7
20260510022052 10 114 0.0 0.0 0.00 0.38 0.38 90 998.6
20260510021544 10 114 0.0 0.0 0.00 0.38 0.38 91 998.6
20260510021301 10 114 0.0 0.0 0.00 0.38 0.38 90 998.6
20260510020534 10 114 0.0 0.0 0.00 0.38 0.38 90 998.6
20260510020027 10 114 0.0 0.0 0.00 0.38 0.38 90 998.6
20260510015523 11 114 0.0 0.0 0.00 0.38 0.38 90 998.5
20260510015015 11 114 0.0 0.0 0.00 0.38 0.38 90 998.5
20260510014733 11 114 0.0 0.0 0.00 0.38 0.38 90 998.4
20260510014002 11 114 0.0 0.0 0.00 0.38 0.38 89 998.5
20260510013456 11 114 0.0 0.0 0.00 0.38 0.38 89 998.5
20260510012951 11 114 0.0 0.0 0.00 0.38 0.38 89 998.5
20260510012706 11 114 0.0 1.6 0.00 0.38 0.38 89 998.4
20260510011941 11 114 0.0 1.6 0.00 0.38 0.38 88 998.4
20260510011433 11 114 0.0 0.0 0.00 0.38 0.38 88 998.4
20260510010927 11 114 0.0 0.0 0.00 0.38 0.38 88 998.4
20260510010421 11 114 0.0 0.0 0.00 0.38 0.38 88 998.3
20260510005915 11 114 0.0 0.0 0.00 0.38 0.38 88 998.2
20260510005409 12 114 0.0 1.6 0.00 0.38 0.38 88 998.1
20260510005133 12 114 0.0 1.6 0.00 0.38 0.38 88 998.0
20260510004356 12 114 0.0 0.0 0.00 0.38 0.38 88 998.0
20260510003851 12 114 0.0 0.0 0.00 0.38 0.38 88 998.1
20260510003346 12 114 0.0 0.0 0.00 0.38 0.38 88 998.0
20260510002840 12 114 0.0 0.0 0.00 0.38 0.38 88 998.1
20260510002333 12 114 0.0 0.0 0.00 0.38 0.38 88 998.0
20260510001827 12 114 0.0 0.0 0.00 0.38 0.38 88 998.0
20260510001545 12 114 0.0 0.0 0.00 0.38 0.38 88 998.0
20260510000821 13 114 0.0 0.0 0.00 0.38 0.38 88 997.9
20260510000319 13 114 0.0 0.0 0.00 0.38 0.38 88 998.0
20260510000304 13 114 0.0 0.0 0.00 0.38 0.38 88 997.9
20260509235314 13 114 0.0 0.0 0.00 0.38 0.38 89 997.8
20260509234812 13 114 0.0 0.0 0.00 0.38 0.38 89 997.9
20260509234309 13 114 0.0 0.0 0.00 0.38 0.38 89 998.0
20260509233809 13 114 0.0 0.0 0.00 0.38 0.38 88 998.0
20260509233309 13 114 0.0 0.0 0.00 0.38 0.38 89 998.0
20260509232810 13 114 0.0 0.0 0.00 0.38 0.38 89 998.0
20260509232307 13 114 0.0 1.6 0.00 0.38 0.38 89 997.9
20260509231807 13 114 0.0 1.6 0.00 0.38 0.38 89 997.9
20260509231303 13 114 0.0 1.6 0.00 0.38 0.38 89 997.9
20260509230803 13 114 0.0 3.2 0.00 0.38 0.38 89 997.9
20260509230305 13 114 1.6 4.8 0.00 0.38 0.38 89 997.9
20260509225806 13 115 1.6 4.8 0.00 0.38 0.38 89 997.9
20260509225524 13 115 1.6 4.8 0.00 0.38 0.38 89 997.9
20260509224801 13 113 1.6 6.4 0.00 0.38 0.38 90 998.0
20260509224301 13 113 1.6 6.4 0.00 0.38 0.38 90 998.0
20260509224018 13 98 1.6 6.4 0.00 0.38 0.38 90 997.9
20260509223300 13 108 1.6 6.4 0.00 0.38 0.38 90 998.0
20260509222801 13 109 1.6 4.8 0.00 0.38 0.38 90 998.0
20260509222306 13 109 3.2 6.4 0.00 0.38 0.38 89 997.9
20260509221800 13 107 3.2 6.4 0.00 0.38 0.38 89 997.8
20260509221302 13 113 3.2 6.4 0.00 0.38 0.38 90 997.8
20260509220800 13 90 1.6 8.0 0.00 0.38 0.38 89 997.8
20260509220300 13 80 1.6 8.0 0.00 0.38 0.38 89 997.8
20260509215801 13 109 3.2 4.8 0.00 0.38 0.38 90 997.9
20260509215300 13 103 3.2 9.7 0.00 0.38 0.38 89 997.8
20260509214801 13 105 3.2 9.7 0.00 0.38 0.38 89 997.9
20260509214301 13 106 3.2 6.4 0.00 0.38 0.38 89 997.9
20260509213800 14 90 1.6 4.8 0.00 0.38 0.38 89 998.0
20260509213523 14 43 1.6 4.8 0.00 0.38 0.38 89 998.0
20260509213018 13 34 0.0 3.2 0.00 0.38 0.38 89 998.0
20260509212252 13 34 0.0 3.2 0.00 0.38 0.38 89 998.1
20260509211745 13 34 1.6 4.8 0.03 0.38 0.38 90 998.1
20260509211240 13 34 1.6 4.8 0.05 0.38 0.38 90 998.1
20260509210734 13 31 1.6 6.4 0.05 0.38 0.38 91 998.0
20260509210228 13 20 1.6 6.4 0.05 0.38 0.38 92 998.0
20260509205723 13 65 1.6 4.8 0.05 0.38 0.38 92 998.0
20260509205437 13 0 1.6 4.8 0.05 0.38 0.38 92 998.0
20260509204710 13 5 1.6 4.8 0.05 0.38 0.38 92 998.0
20260509204427 13 28 0.0 4.8 0.08 0.38 0.38 92 998.1
20260509203658 13 30 1.6 4.8 0.08 0.38 0.38 92 998.1
20260509203153 12 30 1.6 6.4 0.10 0.38 0.38 91 997.9
20260509202647 12 30 1.6 6.4 0.10 0.38 0.38 91 997.8
20260509202141 12 21 3.2 6.4 0.10 0.38 0.38 91 997.9
20260509201857 12 15 3.2 6.4 0.08 0.36 0.36 90 997.8
20260509201352 13 22 3.2 8.0 0.08 0.33 0.33 91 998.0
20260509200622 13 33 3.2 8.0 0.13 0.33 0.33 91 998.0
20260509200339 13 28 3.2 6.4 0.13 0.33 0.33 91 998.0
20260509195609 13 28 1.6 4.8 0.13 0.33 0.33 90 998.1
20260509195332 13 60 0.0 4.8 0.13 0.33 0.33 90 998.2
20260509194605 13 5 1.6 6.4 0.13 0.33 0.33 90 998.4
20260509194102 13 5 1.6 6.4 0.10 0.30 0.30 90 998.4
20260509193559 13 9 1.6 6.4 0.10 0.30 0.30 89 998.4
20260509193102 13 9 1.6 4.8 0.08 0.28 0.28 90 998.5
20260509192601 13 16 1.6 6.4 0.08 0.28 0.28 89 998.7
20260509192057 13 342 1.6 6.4 0.10 0.28 0.28 89 998.7
20260509191559 13 278 1.6 9.7 0.10 0.28 0.28 89 998.8
20260509191057 13 225 1.6 9.7 0.05 0.23 0.25 89 999.0
20260509190557 13 9 1.6 6.4 0.05 0.20 0.20 89 999.0
20260509190055 13 240 1.6 6.4 0.05 0.20 0.20 88 999.1
20260509185556 13 291 1.6 6.4 0.05 0.20 0.20 89 999.0
20260509185054 13 307 1.6 4.8 0.05 0.20 0.20 89 999.1
20260509184820 13 275 1.6 4.8 0.08 0.20 0.20 88 999.1
20260509184321 13 344 1.6 8.0 0.10 0.20 0.20 88 999.1
20260509183550 13 12 1.6 8.0 0.10 0.20 0.20 88 999.1
20260509183050 13 252 1.6 6.4 0.10 0.20 0.20 87 999.2
20260509182548 13 275 0.0 3.2 0.10 0.20 0.20 88 999.2
20260509182048 14 355 0.0 3.2 0.08 0.18 0.20 87 999.3
20260509181549 14 294 1.6 3.2 0.08 0.18 0.18 87 999.4
20260509181042 14 291 1.6 6.4 0.08 0.18 0.18 87 999.4
20260509180538 14 234 1.6 6.4 0.05 0.15 0.15 87 999.5
20260509180030 14 238 1.6 6.4 0.05 0.15 0.15 86 999.5
20260509175526 14 335 1.6 3.2 0.05 0.15 0.15 86 999.5
20260509175503 14 336 1.6 6.4 0.05 0.15 0.15 86 999.5
20260509174512 14 219 3.2 6.4 0.03 0.13 0.13 85 999.5
20260509174005 14 294 3.2 8.0 0.00 0.10 0.10 85 999.5
20260509173502 15 232 1.6 6.4 0.03 0.10 0.10 85 999.4
20260509172954 15 232 0.0 4.8 0.05 0.10 0.10 85 999.3
20260509172712 15 337 0.0 3.2 0.05 0.10 0.10 85 999.2
20260509171942 15 171 0.0 3.2 0.08 0.10 0.10 85 999.1
20260509171436 15 53 0.0 3.2 0.10 0.10 0.10 85 999.0
20260509171156 15 53 0.0 3.2 0.10 0.10 0.10 85 999.0
20260509170424 14 54 1.6 3.2 0.10 0.10 0.10 85 999.2
20260509165918 14 36 0.0 3.2 0.10 0.10 0.10 84 999.3
20260509165411 15 252 0.0 3.2 0.10 0.10 0.10 85 999.3
20260509164907 15 252 0.0 3.2 0.10 0.10 0.10 84 999.3
20260509164400 15 252 0.0 4.8 0.10 0.10 0.10 83 999.4
20260509163855 15 259 1.6 4.8 0.10 0.10 0.10 82 999.3
20260509163349 15 355 1.6 3.2 0.08 0.08 0.08 81 999.4
20260509162842 15 248 1.6 6.4 0.05 0.05 0.05 80 999.4
20260509162336 15 249 3.2 11.3 0.05 0.05 0.05 78 999.5
20260509161830 15 223 4.8 11.3 0.03 0.03 0.03 77 999.6
20260509161325 15 219 4.8 16.1 0.00 0.00 0.00 76 999.6
20260509160818 16 231 4.8 16.1 0.00 0.00 0.00 74 999.7
20260509160311 16 296 4.8 16.1 0.00 0.00 0.00 72 999.9
20260509155807 16 234 4.8 16.1 0.00 0.00 0.00 71 1000.0
20260509155301 16 202 4.8 11.3 0.00 0.00 0.00 71 999.9
20260509154754 16 194 4.8 17.7 0.00 0.00 0.00 70 1000.0
20260509154248 17 269 4.8 17.7 0.00 0.00 0.00 70 999.8
20260509153743 17 263 4.8 12.9 0.00 0.00 0.00 70 1000.0
20260509153237 17 267 6.4 16.1 0.00 0.00 0.00 69 1000.0
20260509152951 17 248 6.4 17.7 0.00 0.00 0.00 68 1000.0
20260509152225 17 234 3.2 17.7 0.00 0.00 0.00 69 999.9
20260509151944 17 244 3.2 11.3 0.00 0.00 0.00 70 999.9
20260509151212 17 225 4.8 12.9 0.00 0.00 0.00 70 1000.0
20260509150705 17 193 3.2 12.9 0.00 0.00 0.00 71 1000.0
20260509150200 16 253 3.2 14.5 0.00 0.00 0.00 71 999.7
20260509145653 16 217 3.2 14.5 0.00 0.00 0.00 72 999.9
20260509145149 16 279 3.2 12.9 0.00 0.00 0.00 72 999.8
20260509144907 16 235 3.2 12.9 0.00 0.00 0.00 73 999.8
20260509144135 16 201 4.8 11.3 0.00 0.00 0.00 72 999.8
20260509143630 16 275 3.2 11.3 0.00 0.00 0.00 72 999.7
20260509143123 16 218 3.2 12.9 0.00 0.00 0.00 73 999.6
20260509142621 16 227 3.2 12.9 0.00 0.00 0.00 73 999.5
20260509142120 16 234 4.8 12.9 0.00 0.00 0.00 73 999.6
20260509141622 16 227 3.2 12.9 0.00 0.00 0.00 73 999.7
20260509141120 16 205 3.2 9.7 0.00 0.00 0.00 75 999.6
20260509140620 16 217 3.2 9.7 0.00 0.00 0.00 75 999.7
20260509140122 16 262 1.6 6.4 0.00 0.00 0.00 76 999.5
20260509135621 16 146 1.6 6.4 0.00 0.00 0.00 77 999.4
20260509135344 15 232 3.2 11.3 0.00 0.00 0.00 77 999.4
20260509134622 15 111 3.2 11.3 0.00 0.00 0.00 76 999.4
20260509134122 15 132 1.6 9.7 0.00 0.00 0.00 78 999.5
20260509133618 15 167 3.2 9.7 0.00 0.00 0.00 79 999.3
20260509133117 15 130 1.6 6.4 0.00 0.00 0.00 79 999.5
20260509132616 15 144 1.6 11.3 0.00 0.00 0.00 79 999.5
20260509132117 15 236 1.6 11.3 0.00 0.00 0.00 79 999.5
20260509131619 15 228 3.2 6.4 0.00 0.00 0.00 81 999.4
20260509131343 15 164 3.2 6.4 0.00 0.00 0.00 81 999.5
20260509130617 14 114 1.6 6.4 0.00 0.00 0.00 82 999.5
20260509130117 14 244 1.6 6.4 0.00 0.00 0.00 82 999.5
20260509125618 14 129 1.6 6.4 0.00 0.00 0.00 83 999.5
20260509125119 13 161 0.0 6.4 0.00 0.00 0.00 84 999.6
20260509124617 13 161 0.0 6.4 0.00 0.00 0.00 84 999.7
20260509124347 13 118 0.0 4.8 0.00 0.00 0.00 84 999.7
20260509123617 13 118 1.6 4.8 0.00 0.00 0.00 84 999.7
20260509123117 13 112 1.6 4.8 0.00 0.00 0.00 84 999.7
20260509122619 13 140 0.0 3.2 0.00 0.00 0.00 84 999.7
20260509122117 12 140 0.0 3.2 0.00 0.00 0.00 84 999.6
20260509121616 12 140 1.6 4.8 0.00 0.00 0.00 84 999.6
20260509121117 12 140 1.6 4.8 0.00 0.00 0.00 84 999.6
20260509120617 12 132 0.0 3.2 0.00 0.00 0.00 83 999.7